Wetbulb
66.28 65.90 66.41 66.02 64.50 64.28 63.25 63.53 63.82 66.22 67.31 66.66 66.34 66.41 66.02 64.63 63.10 61.90 60.13 59.57 56.63 55.05 55.16 55.07 54.99 54.56 54.29 53.46 53.82 53.46 52.58 52.48 49.33 51.12 53.49 53.00 53.29 54.45 55.54 55.19 56.91 56.38 56.18
64.77 65.12 64.10 64.18 64.09 63.39 62.96 64.37 67.52 66.28 66.82 66.26 66.44 65.27 62.87 62.51 61.81 57.18 56.21 56.61 55.47 55.01 55.70 54.82 54.95 56.94 54.23 54.85 54.72 52.98 52.51 52.58 52.87 50.79 50.63 51.32 52.05 53.24 52.65 52.64 55.20 56.66 55.52
65.55 65.29 63.69 63.59 63.83 64.68 64.86 66.58 66.37 65.64 64.99 64.80 64.04 63.79 63.39 60.79 57.55 56.55 56.14 55.71 55.51 56.21 55.22 54.37 54.35 53.80 52.22 52.80 53.26 52.68 54.00 53.36 52.42 51.26 49.48 50.13 50.48 50.97 51.14 51.36 52.78 55.15 56.13
65.86 66.21 65.08 64.63 64.11 64.54 64.90 65.47 65.10 64.83 63.48 61.64 60.73 58.89 58.36 56.41 58.44 57.26 56.68 55.63 55.73 56.16 56.52 55.56 55.02 54.32 53.11 52.54 53.09 52.23 52.66 49.70 48.63 46.88 46.17 46.53 46.93 48.72 51.91 50.67 51.05 52.91 53.96
62.98 62.73 62.17 62.67 63.43 63.53 62.82 62.78 61.91 60.32 58.91 59.23 58.26 58.42 55.32 53.45 53.64 52.63 54.03 54.22 54.44 54.23 54.52 55.58 54.10 56.06 58.10 54.28 51.31 49.91 49.98 49.06 48.36 45.67 45.55 45.27 45.27 45.77 46.01 47.73 47.05 49.13 50.66
61.80 60.91 61.23 60.71 60.41 60.52 60.30 58.80 58.79 57.93 57.90 57.30 57.22 57.21 52.44 52.77 49.91 50.91 52.49 51.77 51.87 51.12 50.57 52.81 53.97 55.79 54.33 54.75 54.45 53.76 51.86 48.57 47.19 44.46 44.48 44.13 44.65 45.50 46.51 46.22 46.07 45.74 45.27
58.34 58.22 58.70 58.55 58.32 58.69 59.28 58.93 58.62 58.42 58.79 57.43 58.00 55.59 50.50 48.71 48.43 49.00 50.64 50.63 50.33 50.67 51.41 51.73 52.01 53.61 53.37 53.57 53.09 53.10 52.24 52.47 51.92 47.22 44.77 45.28 48.54 46.88 46.74 45.68 45.20 45.04 46.07
57.47 57.84 57.82 57.13 57.29 57.92 58.26 58.54 58.67 58.72 56.84 55.62 55.43 53.58 49.07 49.27 47.88 47.61 49.90 50.02 49.63 50.87 50.91 50.33 48.98 49.55 46.73 47.51 47.22 47.86 48.18 48.05 47.99 49.59 47.38 48.15 50.28 48.94 47.83 47.77 46.56 45.75 46.54
56.27 56.19 57.67 57.26 57.52 58.92 58.54 57.38 57.72 57.04 55.41 55.23 54.92 53.64 49.36 48.26 47.04 46.66 47.76 48.92 47.88 45.72 47.87 48.55 49.37 48.30 46.03 46.29 47.92 46.83 44.48 45.97 50.09 50.56 49.24 48.20 47.19 46.98 47.57 45.80 47.44 46.02 43.79
56.61 56.82 58.81 58.78 58.23 57.06 57.16 56.36 55.18 54.37 53.96 53.68 53.27 52.33 50.12 48.62 46.28 46.21 45.58 46.54 42.11 43.17 44.00 45.81 49.60 48.06 45.28 44.80 42.02 40.84 40.65 42.06 44.56 44.44 44.84 46.37 47.63 48.00 49.73 48.72 49.83 45.63 47.12
56.53 57.65 57.75 57.69 57.19 56.67 55.79 55.01 53.83 53.03 52.45 52.31 52.22 52.35 50.87 49.96 46.42 46.25 45.56 43.86 42.69 42.90 42.25 42.61 44.82 45.91 43.90 42.26 42.48 40.43 41.30 43.09 43.39 42.69 44.78 47.39 49.91 49.72 50.55 50.97 51.35 50.06 46.54
58.47 57.89 56.15 55.90 57.55 57.19 53.92 52.94 52.69 50.35 48.78 50.11 49.92 48.78 48.58 49.01 48.01 45.34 46.03 44.66 44.80 41.97 41.75 42.34 43.26 42.88 42.31 41.86 43.69 44.14 43.38 44.33 44.26 45.41 43.25 42.80 44.81 45.85 46.92 48.41 49.78 48.21 48.47
57.69 57.01 56.88 56.72 55.06 53.84 52.00 49.93 49.99 48.68 47.95 47.26 47.57 46.92 45.86 46.77 44.95 45.60 43.93 43.93 45.05 42.49 43.63 44.35 44.07 43.28 43.38 44.71 45.11 44.60 44.17 43.12 41.94 41.45 42.05 41.08 42.00 43.60 44.90 45.51 46.28 46.63 46.74
55.64 55.40 53.28 51.45 53.13 52.47 53.63 51.27 49.09 47.22 47.51 46.62 46.03 44.24 42.78 41.59 41.63 41.32 41.67 41.60 43.59 43.01 42.99 42.64 44.82 44.01 43.69 44.29 43.33 44.52 44.45 43.68 43.35 42.65 43.05 43.40 42.65 42.66 42.99 43.20 42.22 42.67 43.29
53.52 53.85 52.49 53.28 52.95 48.86 46.10 46.67 45.34 41.67 43.07 46.49 45.16 44.16 43.17 40.06 40.65 40.44 39.91 40.19 39.53 40.02 39.45 42.23 40.99 40.37 40.67 40.67 41.49 44.35 44.06 43.87 43.03 43.28 43.59 43.00 44.61 44.14 43.82 45.00 44.80 45.62 44.80
53.28 53.22 51.34 51.40 52.27 49.38 48.82 45.41 41.33 42.35 41.99 40.75 39.95 41.49 40.91 41.37 41.35 41.18 40.99 39.30 38.98 38.76 39.33 39.88 39.41 39.83 39.61 39.69 40.56 41.61 42.17 43.23 42.87 43.97 44.20 46.45 45.40 44.79 45.09 45.77 46.18 45.45 44.80
51.33 50.22 52.49 49.65 50.41 50.60 50.24 46.24 42.87 43.30 43.73 42.13 40.39 40.24 40.42 40.41 40.89 39.69 39.31 38.56 39.91 39.18 40.60 40.96 39.44 39.42 39.25 39.97 42.41 41.16 41.04 40.86 41.46 42.56 45.46 44.75 45.85 45.72 45.19 44.92 45.23 45.91 45.28
51.18 48.84 50.58 49.82 50.09 50.81 49.79 47.57 46.12 43.94 42.92 43.25 41.63 41.91 41.15 40.63 40.61 39.87 38.90 41.37 43.69 43.89 42.79 41.66 41.43 40.86 39.70 39.79 42.02 40.63 40.30 40.85 41.11 42.67 44.79 44.85 45.32 45.58 44.49 44.01 44.57 44.28 45.83
48.39 48.70 50.47 48.04 46.63 46.69 48.92 49.07 46.60 46.59 46.91 45.38 41.43 42.17 44.33 41.87 39.49 39.72 42.03 46.29 45.41 44.12 42.61 43.57 43.17 41.31 40.59 40.54 42.68 42.48 41.22 39.07 40.56 42.65 43.66 44.32 45.67 45.78 45.20 44.53 44.20 40.86 42.41
47.68 46.76 46.51 47.43 47.91 47.89 47.20 47.09 47.80 48.55 47.49 48.35 46.63 46.97 47.44 44.77 44.45 47.50 47.72 47.06 44.53 44.28 44.41 43.33 44.32 43.51 40.86 40.11 40.08 40.20 40.91 40.52 39.99 41.57 42.77 44.16 46.32 45.98 45.45 44.31 44.02 43.27 43.14
50.98 50.32 46.51 49.99 49.70 49.53 48.75 47.62 49.36 48.84 48.17 45.66 44.34 40.89 32.94 44.44 44.41 45.11 45.39 44.44 43.21 43.85 44.15 44.02 43.63 43.89 42.77 41.54 40.95 40.00 38.85 39.82 38.11 39.93 41.89 44.33 46.36 45.29 45.53 45.14 44.62 44.34 43.63
49.09 50.54 50.53 49.49 50.17 47.43 46.50 47.80 47.45 45.63 43.29 42.32 41.89 42.49 37.73 44.75 43.61 43.29 43.44 43.84 44.45 44.40 44.71 44.29 41.65 40.11 40.40 40.85 40.23 38.69 39.28 38.05 36.76 37.67 40.26 43.39 45.39 45.58 45.30 44.80 44.44 44.24 44.17
51.05 49.71 49.02 48.55 48.76 45.16 45.72 44.47 43.68 42.87 42.69 42.11 42.58 44.35 43.96 43.57 43.21 42.74 41.90 42.40 42.44 43.13 43.48 43.50 42.86 42.82 43.83 40.53 39.28 38.09 38.90 36.96 34.89 35.07 38.53 40.63 44.47 45.29 45.04 44.81 44.67 43.87 43.32
51.12 50.02 48.06 46.26 45.66 45.24 44.58 45.82 44.77 41.94 43.87 41.75 42.84 41.10 41.45 41.88 40.54 40.76 41.25 40.93 39.64 40.48 40.44 40.97 42.81 42.89 42.97 38.75 38.20 38.59 39.27 35.90 33.08 34.63 35.83 38.95 44.00 45.50 45.38 44.80 45.08 44.69 44.05
47.94 48.52 46.29 45.93 45.64 43.98 43.34 42.61 42.08 41.97 41.96 41.82 40.46 39.97 38.80 38.65 38.79 40.41 41.21 41.15 41.31 41.00 40.85 41.56 41.72 42.08 40.48 38.57 36.81 36.58 34.41 32.14 32.10 31.97 34.88 38.09 42.94 47.34 46.10 46.51 46.45 46.61 45.79
44.92 45.58 45.15 44.84 45.30 44.36 43.53 42.66 42.10 41.68 40.76 40.58 39.62 38.62 38.25 40.36 40.77 40.85 40.93 41.05 40.81 40.93 41.24 41.20 41.88 40.37 37.29 36.71 34.66 32.80 32.37 32.21 32.36 32.36 34.94 42.28 45.19 46.64 46.31 46.89 47.36 46.35 47.30
MSLP
1007.27 1007.49 1008.39 1009.68 1010.20 1011.43 1012.64 1012.55 1012.76 1012.88 1012.36 1012.62 1012.58 1012.93 1013.65 1014.08 1014.51 1014.83 1015.21 1015.63 1016.11 1016.15 1015.88 1016.07 1016.48 1016.67 1016.78 1016.72 1016.78 1016.99 1017.27 1017.32 1017.61 1017.35 1016.97 1016.43 1016.17 1015.90 1015.66 1015.17 1014.92 1014.69 1014.53
1009.56 1010.19 1010.34 1010.95 1011.07 1012.04 1012.77 1012.66 1012.65 1012.72 1012.68 1013.31 1013.72 1014.04 1013.87 1014.55 1014.97 1015.19 1015.57 1015.86 1016.01 1016.20 1016.40 1016.59 1016.85 1016.87 1016.90 1016.72 1016.80 1016.88 1017.04 1016.99 1017.19 1017.29 1016.98 1016.60 1016.09 1015.53 1015.19 1014.51 1014.30 1014.05 1013.90
1010.83 1009.52 1010.43 1011.50 1011.08 1011.89 1012.34 1012.48 1012.76 1013.21 1013.50 1013.91 1014.99 1015.35 1014.69 1014.91 1015.21 1015.33 1015.57 1015.76 1016.00 1016.30 1016.54 1016.65 1016.81 1016.89 1016.97 1016.66 1016.66 1016.64 1016.73 1016.82 1017.00 1017.25 1017.20 1016.72 1016.22 1015.73 1015.18 1014.85 1014.69 1014.05 1013.61
1010.64 1010.70 1010.73 1010.81 1011.41 1012.29 1013.00 1013.02 1013.22 1013.77 1014.75 1014.39 1014.94 1014.91 1014.82 1015.14 1015.51 1015.81 1015.81 1016.03 1016.24 1016.33 1016.49 1016.62 1016.65 1016.67 1016.63 1016.48 1016.41 1016.52 1016.73 1016.90 1016.99 1017.09 1017.01 1016.87 1016.56 1015.86 1015.66 1015.56 1014.90 1014.44 1014.18
1011.94 1012.87 1013.99 1012.67 1012.28 1013.10 1013.85 1013.77 1013.56 1013.81 1014.41 1014.58 1014.60 1015.20 1015.72 1016.06 1016.54 1016.51 1016.55 1016.52 1016.59 1016.68 1016.64 1016.53 1016.46 1016.33 1016.28 1016.31 1016.37 1016.54 1016.66 1016.88 1017.05 1017.12 1017.00 1016.61 1016.33 1015.99 1015.83 1015.56 1015.36 1014.94 1014.25
1011.53 1012.17 1013.32 1013.25 1013.62 1014.24 1014.66 1014.84 1014.86 1014.68 1014.46 1014.67 1015.19 1015.79 1016.44 1017.07 1017.14 1017.09 1017.11 1017.08 1017.00 1016.99 1016.82 1016.46 1016.33 1016.30 1016.22 1016.30 1016.23 1016.30 1016.39 1016.41 1016.66 1016.86 1016.71 1016.57 1016.49 1015.94 1015.63 1015.48 1015.26 1015.11 1014.72
1013.08 1013.39 1014.42 1014.33 1014.10 1014.49 1014.15 1014.96 1015.24 1015.29 1015.25 1015.37 1015.77 1016.23 1017.19 1017.57 1017.52 1017.36 1017.28 1017.27 1017.21 1016.97 1016.76 1016.61 1016.39 1016.20 1016.25 1016.09 1016.32 1016.40 1016.29 1016.05 1015.98 1016.05 1016.10 1015.85 1015.68 1015.38 1015.25 1015.01 1014.87 1015.00 1014.70
1014.13 1014.50 1014.64 1014.32 1014.62 1014.97 1014.93 1015.14 1015.27 1015.41 1015.71 1015.98 1016.21 1016.79 1017.35 1017.85 1017.84 1017.60 1017.34 1017.18 1017.17 1017.13 1017.11 1016.98 1016.75 1016.65 1016.68 1016.55 1016.57 1016.53 1016.25 1015.86 1015.52 1015.21 1015.27 1015.13 1014.85 1014.57 1014.60 1014.49 1014.31 1014.31 1013.95
1014.43 1014.42 1014.67 1014.95 1015.29 1015.40 1015.39 1015.58 1015.61 1015.83 1016.24 1016.54 1016.78 1017.20 1017.64 1018.15 1018.01 1017.78 1017.67 1017.65 1017.77 1017.64 1017.41 1017.14 1016.76 1016.71 1016.62 1016.42 1016.82 1016.81 1016.51 1015.69 1015.08 1014.88 1014.86 1014.58 1014.14 1013.73 1013.52 1014.05 1013.86 1013.97 1013.69
1014.68 1014.77 1014.72 1014.86 1015.34 1015.73 1016.00 1016.17 1016.26 1016.46 1016.77 1017.09 1017.45 1017.65 1017.88 1018.23 1018.27 1018.25 1018.14 1018.19 1018.46 1018.22 1017.77 1017.52 1017.25 1016.87 1016.76 1016.86 1016.94 1016.70 1016.40 1015.79 1015.60 1015.16 1014.70 1014.07 1013.59 1013.30 1012.82 1013.21 1013.14 1013.49 1013.40
1015.02 1015.10 1015.25 1015.40 1015.85 1015.96 1016.21 1016.32 1016.79 1017.23 1017.45 1017.77 1017.91 1018.13 1018.31 1018.45 1018.69 1018.66 1018.70 1018.57 1018.67 1018.68 1018.29 1017.84 1017.39 1016.89 1016.62 1016.61 1016.63 1016.49 1016.23 1015.88 1015.52 1015.16 1014.69 1014.12 1013.68 1013.11 1012.83 1012.74 1012.62 1012.77 1012.66
1015.15 1015.55 1015.74 1015.70 1015.82 1016.18 1016.78 1017.29 1017.51 1017.82 1018.17 1018.44 1018.74 1018.91 1018.88 1018.90 1018.91 1018.92 1018.96 1018.82 1018.67 1018.81 1018.74 1018.32 1017.81 1017.08 1016.98 1016.85 1016.58 1016.27 1015.96 1015.72 1015.43 1015.12 1014.74 1014.30 1013.85 1013.33 1012.87 1012.69 1012.30 1012.04 1011.82
1015.66 1015.87 1015.94 1016.00 1016.46 1016.72 1017.46 1017.97 1018.30 1018.61 1018.85 1019.12 1019.25 1019.34 1019.48 1019.30 1019.26 1019.27 1019.08 1018.83 1018.66 1018.81 1018.79 1018.17 1018.01 1017.40 1017.23 1016.95 1016.70 1016.38 1016.20 1015.93 1015.72 1015.23 1014.83 1014.34 1013.84 1013.23 1012.70 1012.28 1011.92 1011.68 1011.35
1016.05 1016.31 1016.37 1016.66 1017.14 1017.47 1017.79 1018.27 1018.77 1018.96 1019.18 1019.24 1019.47 1019.77 1019.88 1019.95 1019.73 1019.43 1019.40 1019.01 1019.03 1018.84 1018.49 1018.62 1018.21 1017.76 1017.42 1017.30 1017.02 1016.65 1016.32 1015.99 1015.85 1015.48 1014.96 1014.20 1013.49 1012.97 1012.56 1012.08 1011.82 1011.36 1010.95
1016.66 1016.75 1016.85 1016.99 1017.49 1018.25 1018.89 1019.11 1019.24 1019.60 1019.47 1019.41 1019.73 1019.84 1020.03 1020.04 1019.88 1019.46 1019.66 1019.27 1019.11 1019.01 1019.02 1018.67 1018.51 1018.13 1017.85 1017.71 1017.29 1016.88 1016.60 1016.21 1015.90 1015.34 1014.91 1014.40 1013.69 1012.91 1012.22 1011.56 1011.10 1010.77 1010.51
1017.29 1017.26 1017.19 1017.29 1017.87 1018.40 1018.98 1019.57 1019.57 1019.59 1019.61 1019.65 1019.68 1019.59 1019.81 1019.69 1019.76 1019.58 1019.34 1019.09 1018.78 1018.75 1019.02 1018.87 1018.71 1018.43 1018.28 1017.92 1017.56 1017.28 1016.91 1016.52 1015.94 1015.38 1014.83 1014.25 1013.38 1012.63 1011.86 1011.06 1010.48 1010.11 1009.91
1017.54 1017.57 1017.67 1017.77 1018.01 1018.52 1019.06 1019.46 1019.93 1020.05 1020.00 1019.96 1019.89 1019.83 1019.80 1019.91 1019.73 1019.46 1019.49 1019.21 1018.93 1018.71 1018.91 1018.75 1018.57 1018.40 1018.21 1017.97 1017.61 1017.48 1017.31 1016.83 1016.12 1015.52 1014.78 1014.20 1013.34 1012.56 1011.82 1010.90 1010.11 1009.37 1009.38
1018.03 1018.01 1018.12 1018.01 1018.31 1018.61 1018.86 1019.14 1019.44 1019.80 1020.15 1020.19 1019.82 1019.81 1019.83 1019.71 1019.69 1019.63 1019.55 1019.19 1019.21 1018.81 1018.83 1018.59 1018.45 1018.44 1018.36 1018.12 1017.72 1017.57 1017.39 1016.88 1016.28 1015.63 1014.96 1014.26 1013.47 1012.66 1011.96 1011.17 1010.27 1009.62 1009.33
1018.51 1018.44 1018.20 1018.32 1018.56 1018.71 1018.85 1019.32 1019.71 1019.69 1019.89 1020.11 1020.14 1020.00 1019.80 1019.66 1019.73 1019.82 1019.47 1019.75 1019.56 1019.18 1018.94 1018.80 1018.63 1018.58 1018.51 1018.18 1017.73 1017.51 1017.44 1017.26 1016.61 1015.91 1015.32 1014.52 1013.66 1013.02 1012.26 1011.68 1010.97 1010.35 1009.82
1018.74 1018.61 1018.62 1018.67 1019.04 1019.13 1019.26 1019.59 1019.72 1019.98 1020.25 1020.50 1020.65 1020.64 1020.24 1019.86 1019.82 1019.98 1019.87 1019.59 1019.62 1019.47 1019.22 1019.14 1018.93 1018.78 1018.62 1018.35 1017.97 1017.92 1017.73 1017.35 1016.93 1016.37 1015.66 1014.84 1013.90 1013.37 1012.79 1012.39 1011.83 1011.33 1010.93
1018.90 1019.02 1019.11 1019.08 1019.61 1019.58 1019.58 1019.86 1020.35 1020.48 1020.71 1020.93 1021.06 1020.90 1020.72 1020.64 1020.68 1020.79 1020.54 1020.31 1020.13 1019.85 1019.63 1019.38 1019.35 1019.24 1018.99 1018.64 1018.36 1018.30 1018.09 1017.76 1017.37 1016.84 1016.17 1015.29 1014.43 1013.85 1013.45 1012.94 1012.55 1012.20 1011.84
1019.29 1019.24 1019.37 1019.87 1019.82 1019.89 1020.06 1020.26 1020.60 1020.90 1021.18 1021.37 1021.34 1020.98 1020.90 1021.10 1021.18 1021.18 1021.16 1020.98 1020.67 1020.32 1019.96 1019.74 1019.62 1019.49 1019.38 1019.11 1019.00 1018.76 1018.46 1018.17 1017.79 1017.28 1016.64 1015.70 1014.99 1014.45 1013.94 1013.61 1013.27 1012.96 1012.63
1019.39 1019.73 1020.11 1020.30 1020.26 1020.40 1020.62 1020.81 1021.10 1021.37 1021.60 1021.81 1021.73 1021.60 1021.57 1021.64 1021.69 1021.61 1021.55 1021.55 1021.32 1020.91 1020.54 1020.28 1020.08 1019.73 1019.43 1019.49 1019.38 1019.17 1018.78 1018.62 1018.35 1017.81 1017.03 1016.19 1015.34 1014.85 1014.41 1014.12 1013.87 1013.69 1013.56
1019.58 1019.96 1020.31 1020.58 1020.71 1020.89 1021.07 1021.42 1021.61 1021.66 1021.78 1022.05 1022.16 1022.26 1022.36 1022.41 1022.35 1022.23 1022.05 1021.82 1021.73 1021.47 1021.18 1020.79 1020.39 1020.14 1019.96 1019.95 1019.72 1019.41 1018.96 1018.83 1018.43 1017.74 1017.17 1016.38 1015.43 1014.86 1014.63 1014.41 1014.23 1014.15 1014.14
1020.15 1020.39 1020.56 1020.63 1020.78 1021.03 1021.26 1021.52 1021.80 1021.99 1022.22 1022.50 1022.73 1022.81 1022.92 1022.81 1022.71 1022.54 1022.33 1022.01 1021.78 1021.58 1021.35 1021.07 1020.76 1020.51 1020.42 1020.27 1020.14 1019.81 1019.35 1018.75 1018.19 1017.63 1016.84 1016.07 1015.16 1014.66 1014.64 1014.46 1014.19 1014.24 1014.30
1020.59 1020.69 1020.72 1020.78 1021.04 1021.22 1021.57 1021.84 1022.06 1022.22 1022.59 1022.78 1023.06 1023.16 1023.16 1023.03 1022.90 1022.70 1022.48 1022.19 1022.01 1021.79 1021.53 1021.28 1020.98 1020.98 1020.97 1020.81 1020.63 1020.13 1019.49 1018.78 1017.98 1017.14 1016.52 1015.55 1014.96 1014.59 1014.49 1014.40 1014.10 1014.19 1014.10
Wind_Speed
9 9 13 9 10 9 3 2 3 6 3 4 6 8 6 4 6 5 5 6 6 5 5 6 3 2 2 2 3 2 2 2 2 3 2 4 3 3 5 5 5 6 5
10 8 10 9 6 4 4 4 3 7 10 9 10 7 5 5 5 6 7 6 7 7 6 7 5 4 4 3 1 2 0 3 0 3 3 4 5 7 6 5 5 6 6
6 3 4 3 4 2 2 5 10 12 12 11 4 3 6 5 5 6 6 6 6 6 4 4 2 2 3 2 2 2 1 1 2 1 3 2 3 3 5 3 5 7 5
4 7 7 7 6 8 9 11 11 9 6 5 5 3 8 8 7 6 7 6 5 5 3 2 3 3 3 5 4 2 2 2 2 2 3 3 3 4 2 3 8 4 7
17 16 12 9 13 12 10 8 8 8 7 4 8 8 7 9 7 7 7 7 6 6 6 6 4 3 5 4 3 2 2 1 2 3 3 3 3 3 3 3 2 4 6
13 14 7 7 12 10 9 4 6 6 8 7 7 8 8 7 11 13 7 6 6 5 5 6 6 2 4 5 5 5 5 3 3 2 3 3 4 3 2 3 3 3 4
10 11 5 5 8 7 9 5 5 5 4 5 7 8 9 6 9 10 8 5 5 5 6 5 5 2 2 1 3 5 6 7 7 4 3 5 4 4 3 3 3 3 5
7 6 4 5 6 5 6 6 4 2 4 5 7 10 8 5 7 8 8 6 6 7 6 5 4 4 6 5 4 4 5 6 7 4 4 7 5 7 5 5 4 4 4
5 5 5 5 5 5 5 5 4 5 6 7 6 8 8 5 7 10 8 7 6 7 7 3 4 5 2 1 5 6 7 8 8 10 8 11 13 15 12 2 4 2 4
6 5 4 5 6 5 6 6 6 6 6 6 7 7 7 5 7 8 7 4 6 5 7 6 3 2 4 6 3 3 6 6 6 8 8 8 8 8 12 6 2 4 5
5 7 7 8 7 7 6 6 6 7 7 6 6 4 5 6 4 7 7 4 3 5 5 5 5 8 4 7 3 2 5 5 9 5 5 7 6 4 3 3 4 5 4
5 7 9 8 7 6 8 6 7 7 6 5 6 5 3 4 5 5 7 5 4 3 5 4 5 13 10 7 5 8 9 6 4 6 5 5 5 4 3 3 5 5 4
7 7 6 7 7 7 7 6 5 5 4 4 4 4 3 4 3 5 9 11 11 5 6 7 8 10 10 7 12 13 8 4 4 4 5 4 4 5 6 5 4 5 6
7 5 4 6 6 6 4 5 4 4 3 4 4 3 2 2 3 4 5 4 7 8 9 6 7 7 7 6 6 6 5 4 4 5 5 6 5 5 4 3 3 4 4
5 4 5 4 6 6 5 4 4 4 2 4 2 2 4 1 2 2 3 5 5 4 6 2 3 4 4 5 5 5 5 5 6 6 6 5 7 6 5 6 6 6 6
5 4 3 2 4 4 6 5 8 7 7 9 6 4 2 3 4 7 10 11 12 5 0 1 2 3 3 4 4 4 4 7 6 5 5 7 8 9 9 9 8 6 5
5 4 4 4 4 5 4 5 5 3 2 5 6 8 7 1 8 10 11 13 10 7 0 3 2 2 2 4 4 3 3 5 6 6 6 9 9 9 9 9 8 5 4
5 5 4 5 4 4 3 4 4 4 3 2 1 3 2 4 7 11 11 10 6 4 2 3 2 1 2 3 4 3 4 7 7 7 8 9 9 8 8 9 8 7 2
4 4 4 5 4 4 4 4 3 4 3 2 2 3 5 7 5 7 10 3 4 3 4 6 4 4 4 4 4 3 4 5 7 8 8 9 9 8 8 8 8 11 8
5 9 7 4 4 4 5 5 5 5 5 5 5 4 4 5 2 3 4 2 3 4 4 5 5 4 4 5 5 4 5 7 8 8 9 9 7 6 6 7 7 7 7
4 4 5 5 5 4 4 5 4 5 5 4 3 3 2 6 6 6 5 6 5 4 4 5 5 7 6 5 5 4 4 7 8 8 8 9 8 7 6 6 6 7 6
2 3 4 4 5 5 4 4 4 5 5 4 3 4 7 5 5 5 5 6 5 5 4 4 4 4 5 5 6 5 6 8 8 8 7 8 7 6 5 5 6 6 7
2 4 4 4 5 5 5 5 5 5 5 5 5 5 6 5 5 5 5 4 4 4 5 5 5 6 6 5 5 5 6 7 7 7 7 8 7 4 4 4 5 5 5
4 6 4 4 4 3 4 5 5 6 5 4 4 5 5 6 5 5 5 5 4 5 5 4 4 7 6 5 5 6 6 7 6 7 9 6 6 3 3 3 3 4 4
5 3 3 4 4 5 5 5 5 5 5 5 4 5 5 4 4 4 4 3 4 4 5 5 5 7 8 9 10 13 12 12 9 8 6 6 7 4 2 2 3 2 2
6 6 4 5 4 4 4 5 5 5 5 5 5 4 4 3 3 3 3 4 3 3 5 4 5 9 10 8 11 12 12 14 12 13 8 6 5 3 2 3 6 2 3
Wind_Direction
89 106 104 100 87 74 53 326 293 278 81 114 94 109 116 150 128 120 96 95 96 78 69 85 80 88 75 352 2 27 31 121 164 288 243 296 286 281 284 271 273 269 258
52 59 62 79 71 36 324 311 303 61 55 40 56 32 103 106 105 98 91 99 94 72 59 56 37 24 359 357 353 313 306 325 348 296 289 310 305 296 256 295 278 285 250
65 4 55 100 90 50 342 63 79 78 81 97 103 137 144 158 116 112 114 96 86 96 90 75 353 337 314 301 258 268 298 9 357 292 298 298 294 306 319 336 325 307 280
30 24 29 49 50 56 78 79 81 78 43 80 74 87 75 71 64 69 80 78 61 57 59 48 332 357 306 286 262 300 82 33 353 333 304 282 280 309 344 328 340 346 345
64 44 17 63 75 73 55 77 90 97 108 103 76 52 63 57 40 47 43 45 40 14 359 5 8 336 345 92 120 112 63 350 278 266 267 260 287 324 325 299 287 306 314
104 104 128 87 85 89 91 98 46 65 67 53 53 77 66 64 56 52 49 39 19 13 348 328 306 246 135 159 170 182 213 209 263 233 248 261 276 264 276 270 295 316 321
101 110 109 88 84 80 100 98 54 38 33 62 78 91 81 73 58 49 38 27 355 342 339 329 327 0 324 108 252 286 294 298 219 214 254 259 250 253 247 274 241 240 263
96 125 135 113 99 91 84 103 110 59 50 73 75 84 87 61 53 38 29 23 7 358 347 358 18 52 42 53 26 346 324 300 291 295 255 271 254 263 226 238 246 254 269
107 101 98 106 109 93 90 77 55 53 56 54 56 103 91 61 42 34 25 20 24 354 344 356 97 113 182 51 355 344 325 315 332 332 331 290 282 280 272 193 272 221 287
85 86 80 93 97 99 90 72 61 66 68 86 74 101 125 104 49 43 41 49 23 350 341 351 340 225 246 45 333 323 318 295 309 313 311 313 307 297 287 195 243 224 252
70 45 65 87 92 91 74 63 75 75 81 87 92 89 81 89 57 36 18 39 19 349 348 344 323 280 255 335 325 301 251 284 302 300 302 310 304 309 360 353 245 222 228
54 84 71 64 63 60 74 68 73 87 92 82 76 66 56 50 40 355 343 358 0 40 354 333 334 34 22 347 341 333 326 340 338 332 321 304 309 306 304 306 287 272 239
74 74 72 77 67 72 96 92 87 102 100 96 105 85 39 37 25 2 33 34 30 34 355 344 15 15 4 7 355 352 8 353 327 334 317 297 285 277 295 313 308 296 278
83 83 82 84 92 78 65 85 90 67 119 122 107 111 103 51 9 4 14 14 11 359 3 330 357 8 10 355 352 351 343 338 328 300 292 292 288 299 290 255 267 276 271
49 47 35 100 108 88 66 55 83 53 38 111 96 123 135 53 293 320 352 1 342 326 329 350 347 348 353 339 341 347 345 339 339 325 326 319 323 303 295 289 287 295 277
31 28 24 37 124 129 105 72 33 83 62 71 76 93 31 96 346 359 358 349 322 320 79 289 296 330 340 334 334 342 343 339 317 322 317 323 319 325 313 307 290 261 264
39 16 339 45 79 129 129 126 114 337 33 84 86 65 64 37 352 352 0 340 345 119 338 269 266 356 334 337 349 353 328 324 325 328 329 336 321 321 323 321 314 285 248
22 26 73 79 75 110 146 126 147 162 184 230 52 108 311 328 346 344 350 339 358 345 327 327 342 300 341 337 341 3 340 351 342 337 340 332 324 327 338 341 342 343 284
66 45 63 73 63 42 68 61 72 65 76 60 47 333 321 312 314 315 328 1 315 339 17 13 5 30 23 351 334 16 360 349 342 346 335 333 327 337 344 349 354 9 27
58 50 58 53 50 56 63 64 54 52 48 44 30 4 347 6 348 23 342 355 12 24 15 21 6 14 14 351 335 43 5 356 352 346 332 333 335 339 348 1 4 10 20
66 58 40 59 62 68 63 76 82 88 87 83 71 26 337 57 55 40 26 37 31 27 13 26 20 10 3 344 1 17 2 353 348 345 330 336 341 345 351 6 13 14 27
40 75 75 62 77 70 72 78 71 74 69 54 6 21 65 67 61 54 30 13 4 9 360 15 19 19 342 11 14 6 3 349 340 335 327 329 332 339 355 7 15 21 28
179 78 67 83 96 84 63 51 71 78 70 51 32 32 44 43 44 48 47 15 4 4 11 16 14 16 5 27 8 356 359 342 322 310 315 311 321 337 349 16 17 21 33
108 116 113 105 92 107 85 87 85 76 73 60 69 56 48 44 42 28 21 25 14 7 0 349 12 10 23 16 7 350 344 336 311 302 313 297 306 291 351 33 17 44 54
69 95 130 161 144 121 105 101 99 93 78 65 69 47 39 50 34 17 11 358 359 10 2 0 3 2 19 19 10 353 339 330 320 301 301 288 295 298 143 357 328 333 100
49 39 42 62 88 87 98 97 92 96 99 84 84 77 64 24 20 17 5 358 4 4 357 343 348 42 20 12 358 345 341 338 331 329 322 313 332 316 335 176 273 349 93